星链-3257 (STARLINK-3257 )

导读

STARLINK-3257是美国太空探索技术公司(SpaceX)“星链”项目下的卫星,于2021年12月18日发射升空,属于低轨互联网通信卫星。该卫星旨在为全球提供高速宽带互联网服务,尤其覆盖偏远地区。它加入庞大星链星座,推动全球卫星互联网组网建设,助力拓展天地一体化通信覆盖。

基本信息
目录编号:
50203
目录名称:
STARLINK-3257
国际标识:
2021-125AZ
轨道中心:
EARTH
卫星名称:
星链-3257
卫星全名:
星链-3257 (STARLINK-3257 )
卫星状态:
在轨 (已飞行1721 天)
发射日期:
2021-12-18 UTC
国别 :
美国 (US)
星等 :
--
轨道信息
数据来源 国际轨道数据
星历时间: 2026-09-04T01:41:57+0800
12小时前
查看轨道信息
半长轴: 6848.88km
偏心率: 0.0001344
轨道倾角: 53.161°
近地点辐角 92.387°
升交点赤经 150.893°
平近点角 267.728°
近地点: 469.822km
远地点: 471.664km
周期: 94.013分钟
每日圈数: 15.316992
详细信息
固有亮度:
5
最大亮度:
2.5
卫星平台:
Starlink v1.5
覆盖范围:
全球
运营商:
太空探索技术公司
运营商所在国:
美国
制造商(研发单位):
太空探索技术公司
制造商所在国:
美国
使用方式:
暂无
卫星简介
星链(Starlink)计划是由太空探索技术公司(SpaceX)提出的一个巨型低轨卫星互联网星座项目,计划在2019年至2024年间在太空搭建由约1.2万颗卫星组成的“星链”网络,其中1584颗将部署在地球上空550千米处的近地轨道,并从2020年开始工作。该卫星仍在工作。
2D轨道图
3D轨道图
轨道高度分析图
轨道倾角分析图
轨道综合分析图
查看轨道综合分析图
交会数据列表
事件ID 空间交会对象 最接近时刻(TCA) 交会距离 交会风险概率(CRP) 交会风险指数(CRI) 操作
CDM_260904-012705-020306-387421
2026-09-04T
01:27:30+0000
1.141 km
极远距离
4.886269E-6 低风险 0.49